Location: B
(0.0000°N, 0.0000°E)
Time: 07:10:31
(UTC+01:00)

Cosmos 1025 Rocket - Visible Passes

Search period start: 22 February 2017 00:00
Search period end: 04 March 2017 00:00
Orbit: 594 x 619 km, 82.5° (Epoch: 20 February)

Date Brightness Start Highest point End Pass type
(mag) Time Alt. Az. Time Alt. Az. Time Alt. Az.
25 Feb 5.3 21:22:12 19° SSW 21:22:12 19° SSW 21:23:34 10° SSW visible
26 Feb 4.6 19:52:53 10° NE 19:55:33 16° E 19:58:12 10° SE visible
26 Feb 5.6 21:29:42 10° NW 21:32:51 19° W 21:36:02 10° SW visible
27 Feb 3.8 20:05:02 10° NNE 20:08:55 31° E 20:12:48 10° SSE visible
28 Feb 3.0 20:17:57 10° N 20:22:17 64° E 20:26:39 10° SSE visible
01 Mar 3.5 20:31:20 10° NNW 20:35:40 61° W 20:40:00 10° S visible
02 Mar 5.0 20:45:13 10° NNW 20:49:02 29° W 20:52:52 10° SSW visible
03 Mar 6.1 20:59:54 10° WNW 21:02:25 15° W 21:04:56 10° SW visible
